星链-6380 (STARLINK-6380 )

导读

STARLINK-6380是美国太空探索技术公司SpaceX星链星座的一员,由美国于2023年7月16日发射,属于星链星座低轨卫星组网的卫星之一。它主要服务于全球高速互联网接入,为偏远地区、航海航空等场景提供网络覆盖,延续星链低轨组网的部署节奏,推进全球卫星互联网覆盖网络构建。

基本信息
目录编号:
57344
目录名称:
STARLINK-6380
国际标识:
2023-099S
轨道中心:
EARTH
卫星名称:
星链-6380
卫星全名:
星链-6380 (STARLINK-6380 )
卫星状态:
在轨 (已飞行1064 天)
发射日期:
2023-07-16 UTC
国别 :
美国 (US)
星等 :
--
轨道信息
数据来源 国际轨道数据 AOE轨道数据
星历时间 2026-06-14T18:09:12+0800
8小时前
查看轨道信息
2026-06-13T05:00:00+0800
1天前
查看轨道信息
半长轴 6861.184km 6861.161km
偏心率 0.0000865 0.0000282
轨道倾角 43.003° 43.002°
近地点辐角 254.210° 212.853°
升交点赤经 65.829° 74.572°
平近点角 105.866° 264.048°
近地点 482.453km 482.83km
远地点 483.641km 483.218km
周期 94.267分钟 94.266分钟
每日圈数 15.27581 15.275886
详细信息
固有亮度:
5
最大亮度:
2.5
卫星平台:
Starlink v1.5
覆盖范围:
全球
运营商:
太空探索技术公司
运营商所在国:
美国
制造商(研发单位):
太空探索技术公司
制造商所在国:
美国
使用方式:
暂无
卫星简介
星链(Starlink)计划是由太空探索技术公司(SpaceX)提出的一个巨型低轨卫星互联网星座项目,计划在2019年至2024年间在太空搭建由约1.2万颗卫星组成的“星链”网络,其中1584颗将部署在地球上空550千米处的近地轨道,并从2020年开始工作。该卫星仍在工作。
2D轨道图
3D轨道图
轨道高度分析图
轨道倾角分析图
轨道综合分析图
查看轨道综合分析图